| time (UTC) | temp F | wind direction | speed MPH | gust MPH | rain 1hr in | rain 24hr in | rain mn in | humidity % | barometer mb |
| 20260904060040 | 62 | 151 | 0.0 | 0.0 | 0.00 | 0.00 | 0.00 | 96 | 1012.0 |
| 20260904054537 | 63 | 269 | 0.0 | 0.0 | 0.00 | 0.00 | 0.00 | 96 | 1011.9 |
| 20260904053034 | 64 | 269 | 0.0 | 0.0 | 0.00 | 0.00 | 0.00 | 95 | 1011.9 |
| 20260904051533 | 65 | 319 | 0.0 | 0.0 | 0.00 | 0.00 | 0.00 | 93 | 1011.8 |
| 20260904050032 | 67 | 319 | 0.0 | 0.0 | 0.00 | 0.00 | 0.00 | 93 | 1011.8 |
| 20260904044531 | 66 | 311 | 0.0 | 0.0 | 0.00 | 0.00 | 0.00 | 94 | 1011.8 |
| 20260904043029 | 65 | 289 | 0.0 | 0.0 | 0.00 | 0.00 | 0.00 | 93 | 1011.7 |
| 20260904041527 | 66 | 289 | 0.0 | 0.0 | 0.00 | 0.00 | 0.00 | 92 | 1011.7 |
| 20260904040023 | 67 | 288 | 0.0 | 0.0 | 0.00 | 0.00 | 0.00 | 89 | 1011.8 |
| 20260904034525 | 69 | 288 | 0.0 | 0.0 | 0.00 | 0.00 | 0.00 | 87 | 1011.8 |
| 20260904033030 | 69 | 277 | 0.0 | 0.0 | 0.00 | 0.00 | 0.00 | 87 | 1011.8 |
| 20260904031519 | 69 | 282 | 0.0 | 0.0 | 0.00 | 0.00 | 0.00 | 87 | 1011.8 |
| 20260904030019 | 68 | 276 | 0.0 | 0.0 | 0.00 | 0.00 | 0.00 | 88 | 1011.7 |
| 20260904024519 | 69 | 262 | 0.0 | 0.0 | 0.00 | 0.01 | 0.00 | 88 | 1011.7 |
| 20260904023018 | 69 | 277 | 0.0 | 0.0 | 0.00 | 0.01 | 0.00 | 88 | 1011.5 |
| 20260904021517 | 69 | 274 | 0.0 | 2.0 | 0.00 | 0.01 | 0.00 | 89 | 1011.6 |
| 20260904020016 | 68 | 225 | 0.0 | 0.0 | 0.00 | 0.01 | 0.00 | 89 | 1011.5 |
| 20260904014514 | 69 | 223 | 0.0 | 0.0 | 0.00 | 0.24 | 0.00 | 89 | 1011.6 |
| 20260904013017 | 69 | 243 | 0.0 | 1.0 | 0.00 | 0.24 | 0.00 | 89 | 1011.6 |
| 20260904011515 | 69 | 227 | 0.0 | 2.0 | 0.00 | 0.24 | 0.00 | 89 | 1011.7 |
| 20260904010012 | 69 | 218 | 0.0 | 2.0 | 0.00 | 0.24 | 0.00 | 89 | 1011.5 |
| 20260904004511 | 69 | 204 | 0.0 | 1.0 | 0.00 | 0.25 | 0.00 | 88 | 1011.5 |
| 20260904003011 | 70 | 235 | 0.0 | 2.0 | 0.00 | 0.25 | 0.00 | 87 | 1011.5 |
| 20260904001510 | 70 | 210 | 0.0 | 3.0 | 0.00 | 0.25 | 0.00 | 86 | 1011.1 |
| 20260904000009 | 71 | 223 | 0.0 | 2.0 | 0.00 | 0.25 | 0.00 | 85 | 1011.0 |
| 20260903234508 | 72 | 229 | 1.0 | 4.0 | 0.00 | 0.26 | 0.00 | 84 | 1010.9 |
| 20260903233007 | 72 | 14 | 0.0 | 4.0 | 0.00 | 0.26 | 0.00 | 84 | 1010.8 |
| 20260903231507 | 72 | 243 | 0.0 | 4.0 | 0.00 | 0.26 | 0.00 | 83 | 1010.6 |
| 20260903230006 | 73 | 210 | 1.0 | 2.0 | 0.00 | 0.26 | 0.00 | 82 | 1010.6 |
| 20260903224505 | 74 | 227 | 1.0 | 4.0 | 0.00 | 0.26 | 0.00 | 81 | 1010.5 |
| 20260903223004 | 75 | 180 | 0.0 | 3.0 | 0.00 | 0.26 | 0.00 | 81 | 1010.9 |
| 20260903221502 | 75 | 220 | 1.0 | 5.0 | 0.00 | 0.26 | 0.00 | 80 | 1010.8 |
| 20260903220002 | 75 | 226 | 0.0 | 2.0 | 0.00 | 0.26 | 0.00 | 80 | 1010.9 |
| 20260903214504 | 75 | 232 | 4.0 | 10.0 | 0.00 | 0.26 | 0.00 | 77 | 1010.8 |
| 20260903213101 | 76 | 211 | 4.0 | 8.0 | 0.00 | 0.26 | 0.00 | 77 | 1011.0 |
| 20260903211600 | 77 | 259 | 6.0 | 12.0 | 0.00 | 0.26 | 0.00 | 76 | 1010.8 |
| 20260903210103 | 76 | 234 | 4.0 | 8.0 | 0.00 | 0.26 | 0.00 | 77 | 1010.9 |
| 20260903204601 | 77 | 246 | 6.0 | 13.0 | 0.00 | 0.26 | 0.00 | 76 | 1011.1 |
| 20260903203058 | 77 | 225 | 8.0 | 14.0 | 0.00 | 0.26 | 0.00 | 75 | 1011.3 |
| 20260903201558 | 77 | 221 | 3.0 | 11.0 | 0.00 | 0.26 | 0.00 | 77 | 1011.2 |
| 20260903200057 | 76 | 242 | 9.0 | 19.0 | 0.00 | 0.26 | 0.00 | 76 | 1011.4 |
| 20260903194604 | 77 | 268 | 6.0 | 14.0 | 0.00 | 0.26 | 0.00 | 76 | 1011.5 |
| 20260903193104 | 77 | 237 | 10.0 | 16.0 | 0.00 | 0.26 | 0.00 | 76 | 1011.6 |
| 20260903191603 | 77 | 240 | 7.0 | 14.0 | 0.00 | 0.26 | 0.00 | 76 | 1011.6 |
| 20260903190055 | 77 | 244 | 10.0 | 17.0 | 0.00 | 0.26 | 0.00 | 74 | 1011.7 |
| 20260903184554 | 78 | 250 | 6.0 | 12.0 | 0.00 | 0.26 | 0.00 | 74 | 1011.6 |
| 20260903183053 | 78 | 271 | 10.0 | 16.0 | 0.00 | 0.26 | 0.00 | 72 | 1011.8 |
| 20260903181600 | 78 | 226 | 9.0 | 16.0 | 0.00 | 0.26 | 0.00 | 73 | 1011.6 |
| 20260903180100 | 77 | 215 | 10.0 | 18.0 | 0.00 | 0.26 | 0.00 | 73 | 1011.7 |
| 20260903174551 | 78 | 232 | 8.0 | 15.0 | 0.00 | 0.26 | 0.00 | 73 | 1011.6 |
| 20260903173057 | 78 | 217 | 6.0 | 14.0 | 0.00 | 0.26 | 0.00 | 74 | 1011.6 |
| 20260903171548 | 77 | 309 | 9.0 | 16.0 | 0.00 | 0.26 | 0.00 | 74 | 1011.4 |
| 20260903170133 | 77 | 258 | 8.0 | 16.0 | 0.00 | 0.26 | 0.00 | 74 | 1011.5 |
| 20260903164552 | 77 | 233 | 6.0 | 14.0 | 0.00 | 0.26 | 0.00 | 75 | 1011.6 |
| 20260903163045 | 77 | 217 | 8.0 | 14.0 | 0.00 | 0.26 | 0.00 | 73 | 1011.7 |
| 20260903161553 | 77 | 253 | 8.0 | 14.0 | 0.00 | 0.26 | 0.00 | 72 | 1011.8 |
| 20260903160045 | 76 | 245 | 6.0 | 14.0 | 0.00 | 0.26 | 0.00 | 77 | 1011.9 |
| 20260903154549 | 75 | 250 | 7.0 | 13.0 | 0.00 | 0.26 | 0.00 | 80 | 1012.0 |
| 20260903153035 | 75 | 229 | 7.0 | 11.0 | 0.00 | 0.26 | 0.00 | 83 | 1012.2 |
| 20260903151544 | 74 | 239 | 8.0 | 12.0 | 0.00 | 0.26 | 0.00 | 83 | 1012.2 |
| 20260903150040 | 74 | 228 | 4.0 | 13.0 | 0.00 | 0.26 | 0.00 | 84 | 1012.2 |
| 20260903144531 | 74 | 244 | 5.0 | 12.0 | 0.00 | 0.26 | 0.00 | 84 | 1012.2 |
| 20260903143034 | 73 | 278 | 7.0 | 12.0 | 0.00 | 0.26 | 0.00 | 83 | 1012.2 |
| 20260903141530 | 73 | 267 | 5.0 | 10.0 | 0.00 | 0.26 | 0.00 | 85 | 1012.1 |
| 20260903140038 | 72 | 233 | 6.0 | 12.0 | 0.00 | 0.26 | 0.00 | 86 | 1012.1 |
| 20260903134523 | 72 | 278 | 7.0 | 10.0 | 0.00 | 0.26 | 0.00 | 89 | 1012.2 |
| 20260903133021 | 71 | 266 | 6.0 | 13.0 | 0.00 | 0.26 | 0.00 | 89 | 1012.1 |
| 20260903131519 | 71 | 262 | 8.0 | 14.0 | 0.00 | 0.26 | 0.00 | 91 | 1012.1 |
| 20260903130023 | 71 | 231 | 6.0 | 12.0 | 0.00 | 0.26 | 0.00 | 92 | 1012.1 |
| 20260903124516 | 71 | 239 | 8.0 | 14.0 | 0.00 | 0.26 | 0.00 | 92 | 1012.1 |
| 20260903123028 | 70 | 235 | 5.0 | 9.0 | 0.00 | 0.26 | 0.00 | 93 | 1012.0 |
| 20260903121514 | 70 | 262 | 3.0 | 11.0 | 0.00 | 0.26 | 0.00 | 94 | 1011.9 |
| 20260903120012 | 70 | 210 | 4.0 | 8.0 | 0.00 | 0.26 | 0.00 | 96 | 1011.9 |
| 20260903114511 | 70 | 262 | 3.0 | 7.0 | 0.00 | 0.26 | 0.00 | 97 | 1011.8 |
| 20260903113019 | 70 | 236 | 2.0 | 6.0 | 0.00 | 0.26 | 0.00 | 97 | 1011.8 |
| 20260903111509 | 70 | 237 | 3.0 | 6.0 | 0.00 | 0.26 | 0.00 | 97 | 1011.7 |
| 20260903110007 | 69 | 251 | 3.0 | 8.0 | 0.00 | 0.26 | 0.00 | 97 | 1011.5 |
| 20260903104506 | 69 | 233 | 3.0 | 6.0 | 0.00 | 0.26 | 0.00 | 97 | 1011.4 |
| 20260903103005 | 69 | 236 | 3.0 | 6.0 | 0.00 | 0.26 | 0.00 | 97 | 1011.3 |
| 20260903101503 | 70 | 254 | 4.0 | 9.0 | 0.00 | 0.26 | 0.00 | 97 | 1011.0 |
| 20260903100002 | 70 | 231 | 7.0 | 12.0 | 0.00 | 0.26 | 0.00 | 96 | 1011.1 |
| 20260903094502 | 70 | 238 | 6.0 | 11.0 | 0.00 | 0.26 | 0.00 | 97 | 1011.2 |
| 20260903093003 | 70 | 221 | 5.0 | 10.0 | 0.00 | 0.26 | 0.00 | 97 | 1011.1 |
| 20260903091500 | 70 | 241 | 5.0 | 9.0 | 0.00 | 0.26 | 0.00 | 97 | 1011.0 |
| 20260903090101 | 70 | 221 | 4.0 | 8.0 | 0.00 | 0.26 | 0.00 | 97 | 1010.9 |
| 20260903084617 | 70 | 245 | 3.0 | 7.0 | 0.00 | 0.26 | 0.00 | 97 | 1010.9 |
| 20260903083104 | 70 | 235 | 3.0 | 8.0 | 0.00 | 0.26 | 0.00 | 97 | 1010.9 |
| 20260903081600 | 70 | 240 | 3.0 | 9.0 | 0.00 | 0.26 | 0.00 | 97 | 1011.0 |
| 20260903080056 | 70 | 229 | 4.0 | 11.0 | 0.00 | 0.26 | 0.00 | 97 | 1011.0 |
| 20260903074602 | 70 | 233 | 5.0 | 10.0 | 0.00 | 0.26 | 0.00 | 97 | 1011.1 |
| 20260903073104 | 70 | 264 | 6.0 | 12.0 | 0.00 | 0.26 | 0.00 | 97 | 1011.2 |
| 20260903071554 | 69 | 214 | 4.0 | 9.0 | 0.00 | 0.26 | 0.00 | 97 | 1011.3 |
| 20260903070054 | 70 | 174 | 4.0 | 10.0 | 0.00 | 0.26 | 0.00 | 96 | 1011.1 |
| 20260903064552 | 70 | 207 | 5.0 | 12.0 | 0.00 | 0.26 | 0.00 | 96 | 1011.3 |
| 20260903063051 | 70 | 256 | 5.0 | 11.0 | 0.00 | 0.26 | 0.00 | 96 | 1011.3 |
| 20260903061551 | 70 | 239 | 8.0 | 13.0 | 0.00 | 0.26 | 0.00 | 96 | 1011.4 |